Galveston Weather Center

Moon Phase Calendar



Online Cameras

 


      

Current Conditions in Texas City
11/30/2020 1:21:57 PM

52°F
Feels Like 38
Clear
Humidity
37%
Pressure
30.33"
Wind
17.2 mph (NNW)
Dew Point
27°F
UV Index
4/10 (Moderate)
Visibility
6 mi

Hourly Forecast

Date & Time Mon, Nov 30
1:00 PM
Mon, Nov 30
2:00 PM
Mon, Nov 30
3:00 PM
Mon, Nov 30
4:00 PM
Mon, Nov 30
5:00 PM
Mon, Nov 30
6:00 PM
Mon, Nov 30
7:00 PM
Mon, Nov 30
8:00 PM
Mon, Nov 30
9:00 PM
Mon, Nov 30
10:00 PM
Mon, Nov 30
11:00 PM
Tue, Dec 1
12:00 AM
Tue, Dec 1
1:00 AM
Tue, Dec 1
2:00 AM
Tue, Dec 1
3:00 AM
Tue, Dec 1
4:00 AM
Tue, Dec 1
5:00 AM
Tue, Dec 1
6:00 AM
Tue, Dec 1
7:00 AM
Tue, Dec 1
8:00 AM
Tue, Dec 1
9:00 AM
Tue, Dec 1
10:00 AM
Tue, Dec 1
11:00 AM
Tue, Dec 1
12:00 PM
Tue, Dec 1
1:00 PM
Tue, Dec 1
2:00 PM
Tue, Dec 1
3:00 PM
Tue, Dec 1
4:00 PM
Tue, Dec 1
5:00 PM
Tue, Dec 1
6:00 PM
Tue, Dec 1
7:00 PM
Tue, Dec 1
8:00 PM
Tue, Dec 1
9:00 PM
Tue, Dec 1
10:00 PM
Tue, Dec 1
11:00 PM
Wed, Dec 2
12:00 AM
Wed, Dec 2
1:00 AM
Wed, Dec 2
2:00 AM
Wed, Dec 2
3:00 AM
Wed, Dec 2
4:00 AM
Wed, Dec 2
5:00 AM
Wed, Dec 2
6:00 AM
Wed, Dec 2
7:00 AM
Wed, Dec 2
8:00 AM
Wed, Dec 2
9:00 AM
Wed, Dec 2
10:00 AM
Wed, Dec 2
11:00 AM
Wed, Dec 2
12:00 PM
Condition
Clear

Clear

Clear

Clear

Clear

Clear

Clear

Clear

Clear

Clear

Clear

Clear

Clear

Clear

Clear

Clear

Clear

Clear

Clear

Clear

Clear

Clear

Clear

Clear

Clear

Clear

Clouds

Clouds

Clouds

Clouds

Clouds

Clouds

Clouds

Clouds

Rain

Clouds

Clouds

Rain

Rain

Rain

Rain

Rain

Rain

Rain

Rain

Rain

Rain

Rain
Temperature 52°F53°F54°F54°F54°F54°F53°F53°F52°F51°F51°F50°F50°F49°F49°F48°F48°F48°F49°F50°F52°F54°F55°F57°F58°F59°F60°F61°F61°F62°F63°F63°F63°F64°F64°F65°F65°F65°F66°F65°F66°F66°F66°F66°F67°F66°F66°F66°F
Feels Like 37°F38°F39°F40°F40°F40°F40°F40°F40°F41°F41°F41°F41°F41°F41°F41°F40°F40°F41°F42°F44°F45°F47°F48°F49°F50°F51°F52°F52°F53°F53°F53°F53°F53°F53°F53°F54°F55°F55°F55°F56°F57°F56°F56°F57°F57°F59°F61°F
Cloudiness 1%7%7%7%5%5%0%0%0%0%0%0%0%0%0%0%0%0%0%0%0%0%0%0%0%0%33%45%47%53%100%100%100%100%100%97%100%100%100%100%100%99%84%92%94%96%96%94%
Visibility 6 mi6 mi6 mi6 mi6 mi6 mi6 mi6 mi6 mi6 mi6 mi6 mi6 mi6 mi6 mi6 mi6 mi6 mi6 mi6 mi6 mi6 mi6 mi6 mi6 mi6 mi6 mi6 mi6 mi6 mi6 mi6 mi6 mi6 mi6 mi6 mi6 mi6 mi6 mi6 mi6 mi6 mi6 mi4 mi3 mi3 mi6 mi3 mi
Precipitation 0%0%0%0%0%0%0%0%0%0%0%0%0%0%0%0%0%0%0%0%0%0%0%0%0%0%0%0%0%0%0%0%0%0%20%1%49%53%57%54%63%67%91%98%100%100%100%100%
Humidity 37%42%44%44%44%44%44%44%45%46%47%47%48%49%50%51%52%52%51%51%51%51%52%55%55%56%58%60%61%63%64%66%67%69%71%71%72%73%74%77%77%77%79%81%81%84%86%85%
Dew Point 27°F30°F32°F33°F33°F32°F31°F31°F31°F30°F29°F28°F28°F29°F29°F30°F30°F31°F32°F33°F34°F36°F39°F41°F42°F44°F45°F47°F48°F49°F51°F52°F52°F54°F55°F55°F56°F56°F57°F58°F59°F59°F60°F60°F61°F62°F62°F62°F
Pressure 30.33"30.33"30.27"30.27"30.3"30.33"30.33"30.36"30.36"30.36"30.36"30.33"30.33"30.3"30.3"30.3"30.27"30.3"30.3"30.3"30.3"30.3"30.27"30.24"30.21"30.15"30.15"30.12"30.12"30.12"30.12"30.12"30.12"30.12"30.12"30.09"30.06"30.06"30.03"30.03"30.03"30.03"30.03"30.03"30.03"30.03"30.03"30.03"
Wind Speed 19.5 mph19.6 mph19.9 mph19.8 mph19.1 mph17.9 mph16.6 mph15.8 mph14.4 mph11.8 mph9.7 mph8.7 mph8.3 mph7.8 mph6.8 mph6.7 mph7.1 mph7.4 mph7.6 mph8.4 mph8.2 mph9.5 mph10.6 mph11.4 mph12.1 mph13 mph14 mph14.6 mph16 mph16.6 mph17.9 mph18.7 mph20.2 mph20.5 mph21.6 mph22.6 mph22.5 mph21.9 mph21.7 mph22.3 mph22.4 mph22.2 mph23.5 mph23.5 mph23.2 mph23.7 mph20.2 mph16 mph
Wind
Direction
345°
NNW
344°
NNW
344°
NNW
347°
NNW
347°
NNW
346°
NNW
346°
NNW
348°
NNW
351°
N
348°
NNW
343°
NNW
343°
NNW
351°
N

N
15°
NNE
33°
NNE
51°
NE
83°
E
99°
E
103°
ESE
119°
ESE
134°
SE
148°
SSE
152°
SSE
152°
SSE
154°
SSE
155°
SSE
155°
SSE
157°
SSE
162°
SSE
160°
SSE
157°
SSE
158°
SSE
159°
SSE
158°
SSE
155°
SSE
156°
SSE
154°
SSE
153°
SSE
152°
SSE
151°
SSE
151°
SSE
158°
SSE
163°
SSE
170°
S
184°
S
217°
SW
241°
WSW

Daily Forecast

Date High Low Precip. Humidity
Today
Nov 30

Clouds
55 °F
47 °F
0%
53%
Tuesday
Dec 1

Rain
64 °F
48 °F
20%
55%
Wednesday
Dec 2

Rain
67 °F
55 °F
100%
85%
Thursday
Dec 3

Clear
55 °F
49 °F
0%
55%
Friday
Dec 4

Clouds
54 °F
48 °F
0%
71%
Saturday
Dec 5

Clear
57 °F
49 °F
0%
48%
Sunday
Dec 6

Clear
61 °F
53 °F
0%
45%
Monday
Dec 7

Clear
62 °F
56 °F
0%
48%
Tuesday
Dec 8

Clouds
58 °F
54 °F
0%
69%
Wednesday
Dec 9

Clouds
66 °F
59 °F
0%
69%
Thursday
Dec 10

Rain
68 °F
66 °F
40%
79%
Friday
Dec 11

Rain
69 °F
68 °F
20%
81%
Saturday
Dec 12

Clouds
67 °F
66 °F
21%
85%
Sunday
Dec 13

Rain
68 °F
66 °F
66%
89%
Monday
Dec 14

Rain
68 °F
54 °F
100%
63%
Tuesday
Dec 15

Clouds
54 °F
47 °F
0%
58%


Temperature 8-14 Day Outlook



Precipitation 8-14 Day Outlook




Quick Links
Galveston News
Galveston Photos
Galveston Videos




About Us
Contact Us
Site Map
Search Site
Advertise With Us
   
Galveston.USGulf.info
THE GALVESTON WEBSITE

Copyright 2020, Coastal Town
Privacy    |    Legal